Santander Airport, Spain

5:13 AM CET on November 22, 2017 (GMT +0100)
Santander Airport

Weather History for LEXJ - February, 2014

Change the Weather History Date:

Sunday, February 23, 2014

  Actual Average Record
Temperature  
Mean Temperature 54 °F -  
Max Temperature 68 °F 56 °F 68 °F (2008)
Min Temperature 40 °F 43 °F 32 °F (2012)
Degree Days  
Heating Degree Days 11    
Growing Degree Days 4 (Base 50)    
Moisture  
Dew Point 34 °F    
Average Humidity 38    
Maximum Humidity 62    
Minimum Humidity 21    
Precipitation  
Precipitation 0.00 in - - ()
Sea Level Pressure  
Sea Level Pressure 29.86 in    
Wind  
Wind Speed 10 mph ()    
Max Wind Speed 22 mph    
Max Gust Speed 38 mph    
Visibility 14.4 miles    
Events      
Averages and records for this station are not official NWS values.
T = Trace of Precipitation, MM = Missing Value Source: Averaged Metar Reports

Daily Weather History Graph

Daily Weather History Graph

Search for Another Location

Airport or City:

Trip Planner

Search our weather history database for the weather conditions in past years. The results will help you decide how hot, cold, wet, or windy it might be!

Date:

Astronomy

Feb. 23, 2014 Rise Set
Actual Time 8:01 AM CET 6:56 PM CET
Civil Twilight 7:32 AM CET 7:25 PM CET
Nautical Twilight 6:59 AM CET 7:58 PM CET
Astronomical Twilight 6:26 AM CET 8:31 PM CET
Moon 2:50 AM CET (2/23) 12:40 PM CET (2/23)
Length of Visible Light 11h 52m
Length of Day
10h 54m
Last Quarter, 42% of the Moon is Illuminated
Feb 23
Last Quarter
Mar 1
New
Mar 8
First Quarter
Mar 16
Full
Mar 24
Last Quarter

Hourly Weather History & Observations

Time (CET) Temp. Dew Point Humidity Pressure Visibility Wind Dir Wind Speed Gust Speed Precip Events Conditions
5:30 AM 48.2 °F 35.6 °F 62% 30.01 in - Calm Calm - N/A   Clear
6:00 AM 55.4 °F 33.8 °F 44% 30.01 in - Variable 4.6 mph - N/A   Clear
6:30 AM 53.6 °F 33.8 °F 47% 29.98 in - East 1.2 mph - N/A   Clear
7:00 AM 56 °F 36 °F 35% 29.99 in 16 mi SSE 6.9 mph - -  
7:00 AM 55.4 °F 33.8 °F 44% 29.98 in - South 4.6 mph 16.1 mph N/A   Clear
7:30 AM 53.6 °F 33.8 °F 47% 29.95 in - SSE 12.7 mph - N/A   Clear
8:00 AM 55.4 °F 32.0 °F 41% 29.95 in - South 15.0 mph 26.5 mph N/A   Clear
8:30 AM 55.4 °F 32.0 °F 41% 29.95 in - SSW 15.0 mph - N/A   Clear
9:00 AM 55.4 °F 33.8 °F 44% 29.95 in - South 17.3 mph 33.4 mph N/A   Clear
9:30 AM 55.4 °F 33.8 °F 44% 29.95 in - South 20.7 mph 33.4 mph N/A   Clear
10:00 AM 57 °F 36 °F 34% 29.95 in 12 mi South 20.7 mph - -   Clear
10:00 AM 55.4 °F 33.8 °F 44% 29.95 in - South 21.9 mph 38.0 mph N/A   Clear
10:30 AM 57.2 °F 33.8 °F 41% 29.95 in - SSW 17.3 mph 33.4 mph N/A   Clear
11:00 AM 57.2 °F 35.6 °F 44% 29.95 in - SSW 16.1 mph 33.4 mph N/A   Clear
11:30 AM 59.0 °F 35.6 °F 42% 29.92 in - SSW 13.8 mph 27.6 mph N/A   Clear
12:00 PM 59.0 °F 35.6 °F 42% 29.92 in - South 15.0 mph 28.8 mph N/A   Clear
12:30 PM 60.8 °F 37.4 °F 42% 29.92 in - South 20.7 mph 35.7 mph N/A   Clear
1:00 PM 65 °F 37 °F 25% 29.90 in 16 mi South 17.3 mph - -   Clear
1:00 PM 60.8 °F 35.6 °F 39% 29.89 in - South 19.6 mph 33.4 mph N/A   Clear
1:30 PM 62.6 °F 33.8 °F 34% 29.86 in - South 21.9 mph 36.8 mph N/A   Clear
2:00 PM 62.6 °F 33.8 °F 34% 29.86 in - South 20.7 mph 32.2 mph N/A   Clear
2:30 PM 64.4 °F 33.8 °F 32% 29.83 in - SE 5.8 mph - N/A   Clear
3:00 PM 64.4 °F 33.8 °F 32% 29.80 in - South 17.3 mph 28.8 mph N/A   Clear
3:30 PM 62.6 °F 32.0 °F 32% 29.80 in - SSW 16.1 mph 29.9 mph N/A   Clear
4:00 PM 66 °F 35 °F 21% 29.79 in 16 mi South 18.4 mph - -   Clear
4:00 PM 62.6 °F 33.8 °F 34% 29.77 in - SSW 16.1 mph 29.9 mph N/A   Clear
4:30 PM 62.6 °F 33.8 °F 34% 29.77 in - SSW 16.1 mph 28.8 mph N/A   Clear
5:00 PM 62.6 °F 32.0 °F 32% 29.77 in - Variable 10.4 mph 23.0 mph N/A   Clear
5:30 PM 62.6 °F 33.8 °F 34% 29.77 in - SSW 9.2 mph - N/A   Clear
6:00 PM 60.8 °F 32.0 °F 34% 29.77 in - South 9.2 mph 25.3 mph N/A   Clear
6:30 PM 60.8 °F 32.0 °F 34% 29.77 in - SW 5.8 mph - N/A   Clear
7:00 PM 62 °F 35 °F 24% 29.79 in 12 mi SW 11.5 mph - -   Scattered Clouds
7:00 PM 60.8 °F 32.0 °F 34% 29.77 in - WSW 2.3 mph - N/A   Clear
7:30 PM 59.0 °F 32.0 °F 36% 29.77 in - SSW 1.2 mph - N/A   Clear
8:00 PM 57.2 °F 35.6 °F 44% 29.80 in - NNW 1.2 mph - N/A   Clear
8:30 PM 59.0 °F 33.8 °F 39% 29.77 in - SW 9.2 mph - N/A   Clear
9:00 PM 59.0 °F 33.8 °F 39% 29.77 in - South 10.4 mph - N/A   Clear
9:30 PM 57.2 °F 33.8 °F 41% 29.77 in - Variable 2.3 mph - N/A   Clear
10:00 PM 53.6 °F 33.8 °F 47% 29.77 in - West 1.2 mph - N/A   Clear
10:30 PM 57.2 °F 33.8 °F 41% 29.77 in - SW 4.6 mph - N/A   Clear
11:00 PM 57.2 °F 32.0 °F 38% 29.77 in - SW 3.5 mph - N/A   Clear